Home > Weather > Lahore > Past weeks

Flag for Pakistan Weather for the Past 2 Weeks in Lahore, Pakistan

Now
70 °F

Passing clouds.


Feels Like: 70 °F
Forecast: 48 / 66 °F
Wind: 6 mph from East

Location: Lahore Airport

Current Time: Feb 7, 2016 at 4:52:43 PM

Latest Report: Feb 7, 2016 at 4:00 PM


Visibility: 3 mi

Pressure: 30.01 "Hg

Humidity: 53%

Dew point: 52 °F

Location of LahoreLocation

Historic Weather in Lahore — Graph

°F

Lahore Temperature Yesterday

Maximum temperature yesterday: 70 °F (at 12:25 PM)
Minimum temperature yesterday: 48 °F (at 7:00 AM)
Average temperature yesterday: 60 °F

High & Low Weather Summary for the Past Weeks

 TemperatureHumidityPressure
High75 °F (Feb 5, 1:55 PM)100% (Jan 26, 12:55 AM)30.18 "Hg (Jan 26, 12:55 AM)
Low39 °F (Jan 24, 7:00 AM)25% (Feb 4, 3:30 PM)29.74 "Hg (Jan 26, 12:00 PM)
Average56 °F69%30.04 "Hg
* Reported Jan 23 3:00 PM — Feb 7 3:30 PM, Lahore, Weather by CustomWeather, © 2016

Note: Actual official high and low records may vary slightly from our data, if they occured in-between our weather recording intervals... More about our weather records

Advertising

Lahore Weather History for the Previous 24 Hours

 ConditionsComfort  
Time TempWeatherWind HumidityBarometerVisibility
3:30 PM
Sun, Feb 7
70 °FPassing clouds.6 mph53%30.04 "Hg3 mi
2:55 PM70 °FPassing clouds.5 mph53%30.04 "Hg3 mi
2:25 PM70 °FRain. Smoke.5 mph53%30.04 "Hg3 mi
1:55 PM68 °FClear.6 mph56%30.04 "Hg3 mi
1:25 PM66 °FPassing clouds.No wind60%30.04 "Hg3 mi
12:59 PM66 °FPassing clouds.No wind60%30.07 "Hg3 mi
12:25 PM63 °FScattered clouds.No wind73%30.07 "Hg3 mi
11:30 AM61 °FScattered clouds.No wind72%30.09 "Hg3 mi
10:59 AM61 °FScattered clouds.No wind72%30.09 "Hg3 mi
10:30 AM59 °FScattered clouds.5 mph77%30.09 "Hg2 mi
9:55 AM57 °FScattered clouds.No wind77%30.09 "Hg2 mi
9:25 AM55 °FScattered clouds.3 mph77%30.09 "Hg2 mi
8:55 AM54 °FFog.No wind82%30.07 "Hg1 mi
8:25 AM52 °FFog.No wind88%30.04 "Hg1 mi
7:55 AM52 °FFog.3 mph88%30.04 "Hg1 mi
7:25 AM50 °FFog.7 mph88%30.01 "Hg1 mi
4:55 AM52 °FPassing clouds.5 mph82%29.98 "Hg2 mi
3:55 AM52 °FPassing clouds.No wind77%29.95 "Hg2 mi
3:25 AM54 °FPassing clouds.No wind82%29.95 "Hg2 mi
2:55 AM54 °FPassing clouds.No wind77%29.95 "Hg2 mi
1:55 AM55 °FPassing clouds.No wind72%29.95 "Hg2 mi
12:55 AM57 °FPassing clouds.No wind72%29.98 "Hg2 mi
12:25 AM57 °FPassing clouds.5 mph72%29.98 "Hg2 mi
11:55 PM
Sat, Feb 6
59 °FPassing clouds.No wind68%29.98 "Hg2 mi
11:25 PM59 °FPassing clouds.2 mph68%29.98 "Hg2 mi
10:55 PM59 °FPassing clouds.No wind68%29.98 "Hg2 mi
10:25 PM61 °FPassing clouds.5 mph63%29.95 "Hg2 mi
9:55 PM61 °FPassing clouds.5 mph63%29.95 "Hg2 mi
9:25 PM61 °FPassing clouds.No wind59%29.95 "Hg3 mi
8:55 PM61 °FPassing clouds.No wind59%29.95 "Hg3 mi
8:25 PM63 °FPassing clouds.No wind56%29.95 "Hg3 mi
7:55 PM63 °FPassing clouds.No wind56%29.95 "Hg3 mi
7:25 PM64 °FPassing clouds.No wind52%29.92 "Hg3 mi
6:55 PM64 °FPassing clouds.No wind52%29.92 "Hg3 mi
6:25 PM66 °FPartly cloudy.No wind52%29.92 "Hg2 mi
5:55 PM66 °FPartly cloudy.5 mph52%29.89 "Hg2 mi
5:25 PM68 °FBroken clouds.6 mph43%29.89 "Hg3 mi
4:55 PM68 °FBroken clouds.5 mph43%29.89 "Hg3 mi
4:25 PM70 °FBroken clouds.No wind40%29.89 "Hg3 mi
Weather by CustomWeather, © 2016

See weather overviewHow to use our weather pages